User: anonymous   Login
Location: Unspecified
(0.0000°N, 0.0000°E)
Time: 20:16:11
(UTC+00:00)
Language:

ATEX - Orbit

View from above orbital plane
View from above orbital plane
View from above satellite
View from above satellite

Ground track
Ground track

The orbit data is extracted from the following two-line orbital elements,

1 25489U 98055A   21136.73551916  .00000120  00000-0  26237-4 0  9992
2 25489  84.9855   3.2448 0011029  51.0720 309.1463 14.48828157194185
Epoch (UTC): 16 May 2021 17:39:08
Eccentricity: 0.0011029
inclination: 84.9855°
perigee height: 721 km
apogee height: 737 km
right ascension of ascending node: 3.2448°
argument of perigee: 51.0720°
revolutions per day: 14.48828157
mean anomaly at epoch: 309.1463°
orbit number at epoch: 19418

The dashed part of the orbit path shows where the satellite is in the earth's shadow,  

DLR